www.pogodaiklimat.ru

Погода и климат >> Архив погоды >> Ирак >> Ramadi


ПОГОДА в Ramadi

  • Прогноз погоды в Ramadi
  • Монитор погоды в Ramadi
  • Климат города

АРХИВ ПОГОДЫ в Ramadi

Время (UTC), дата Ветер
(напр.,м/с)
 
Видим.   Явления Облачность Т
(С)
Тd
(С)
f
(%)
Тe
(С)
Тes
(С)
Комфортность P
(гПа)
Po
(гПа)
Тmin
(С)
Tmax
(С)
R
(мм)
R24
(мм)
S
(см)
15 16.10 штиль 0 10 км 10/10 900 м
[Sc]
+31.0 +19.8 51 +37 +37 очень
душно
1013.4 1013.0
06 17.10 СВ 2 10 км 6/6 900 м
[Sc]
+28.2 +14.3 43 +30 +32 жарко 1014.0 1014.0 +26.2
09 17.10 С 2 10 км 5/3 900 м
[Sc Ac trans]
+35.0 +16.1 32 +37 +44 очень
душно
1013.3 1013.0
12 17.10 СВ 2 10 км 4/3 900 м
[Sc Ac trans]
+37.0 +18.9 35 +42 +45 опасность
перегрева
1011.7 1012.0
15 17.10 штиль 0 10 км 10/10 900 м
[Sc]
+32.0 +21.7 55 +41 +41 опасность
перегрева
1010.9 1011.0
18 17.10 С 2 10 км 9/4 900 м
[Sc As trans]
+28.4 +16.5 48 +32 +32 душно 1012.2 1012.0 +37.5
03 18.10 С 2 10 км 6/3 900 м
[Sc As trans]
+25.0 +13.4 49 +27 +27 жарко 1011.8 1012.0
06 18.10 С 2 10 км 6/4 900 м
[Sc As trans]
+29.0 +13.6 39 +31 +33 жарко 1013.3 1013.0 +24.8
09 18.10 В 2 10 км 5/0
[As trans]
+34.4 +17.4 36 +38 +45 очень
душно
1012.3 1012.0
12 18.10 ЮВ 2 10 км 6/4 900 м
[Sc As trans]
+35.0 +18.2 37 +39 +42 очень
душно
1010.5 1011.0
15 18.10 штиль 0 10 км 8/8 900 м
[Sc]
+32.0 +22.5 57 +41 +41 опасность
перегрева
1010.5 1011.0
18 18.10 штиль 0 10 км 1/0
[Ci fib]
+28.4 +23.1 73 +38 +38 очень
душно
1011.5 1012.0 +35.5
03 19.10 СЗ 2 10 км 8/8 900 м
[Sc]
+25.0 +15.0 54 +28 +28 жарко 1013.5 1014.0
06 19.10 З 2 8000 м слабый дождь 10/10 900 м
[Sc]
+27.0 +16.3 52 +30 +30 душно 1015.0 1015.0 +24.8 0.0
09 19.10 штиль 0 10 км 10/10 900 м
[Sc]
+28.2 +18.6 56 +33 +33 очень
душно
1014.4 1014.0
12 19.10 В 2 10 км 9/9 900 м
[Sc]
+31.4 +17.7 44 +36 +36 очень
душно
1013.5 1014.0
15 19.10 В 2 10 км 8/8 900 м
[Sc]
+27.2 +17.3 55 +31 +31 душно 1013.6 1014.0
18 19.10 штиль 0 10 км 8/8 900 м
[Sc]
+25.0 +18.7 68 +30 +30 душно 1014.8 1015.0 +32.0
03 20.10 штиль 0 10 км 8/8 900 м
[Sc]
+23.0 +19.1 79 +29 +29 очень
душно
1015.7 1016.0
06 20.10 штиль 0 10 км 10/10 900 м
[Sc]
+24.6 +18.6 69 +29 +29 душно 1015.7 1016.0 +22.6 0.0
09 20.10 штиль 0 10 км 8/8 900 м
[Sc]
+30.4 +17.2 45 +34 +37 очень
душно
1015.5 1016.0
12 20.10 В 2 10 км 5/5 900 м
[Sc]
+32.2 +14.9 35 +34 +37 душно 1013.7 1014.0
15 20.10 В 2 10 км 6/6 900 м
[Sc]
+28.6 +18.7 55 +34 +34 очень
душно
1013.8 1014.0
18 20.10 штиль 0 10 км 4/4 900 м
[Sc]
+25.0 +18.7 68 +30 +30 душно 1014.4 1014.0 +32.8
03 21.10 В 2 10 км 5/5 900 м
[Sc]
+22.0 +16.4 71 +26 +26 душно 1016.9 1017.0
06 21.10 Ю 8 7000 м пыльный позёмок 8/8 900 м
[Sc]
+26.6 +15.8 52 +30 +30 душно 1012.6 1013.0 +21.6
09 21.10 Ю 4 8000 м гроза, ливневой дождь 10/10 900 м
[Cb cap]
+30.0 +16.5 44 +33 +33 душно 1011.8 1012.0
12 21.10 С 2 8000 м дымка {гроза, дождь} 10/10 900 м
[Sc]
+22.2 +18.7 81 +28 +28 душно 1013.1 1013.0
15 21.10 С 2 10 км 9/9 900 м
[Sc]
+21.6 +18.7 84 +26 +26 душно 1011.6 1012.0
18 21.10 С 2 10 км {гроза, дождь} 6/6 900 м
[Sc]
+20.4 +18.1 87 +25 +25 комфорт 1012.8 1013.0 +31.0 4
06 22.10 штиль 0 10 км ясно +21.6 +17.7 78 +26 +31 душно 1019.0 1019.0 +17.2
09 22.10 СВ 2 10 км 3/3 900 м
[Cu med, cong]
+25.3 +18.5 66 +30 +37 душно 1018.9 1019.0
12 22.10 СВ 2 10 км 3/3 900 м
[Sc]
+26.8 +19.4 64 +32 +36 очень
душно
1017.5 1018.0
15 22.10 С 2 10 км 3/0
[Ci fib]
+24.5 +20.7 79 +30 +30 очень
душно
1017.9 1018.0
18 22.10 С 1 10 км ясно +22.8 +19.8 83 +29 +29 очень
душно
1018.7 1019.0 +27.8
03 23.10 С 2 8000 м дымка ясно +18.3 +16.3 88 +19 +19 1019.5 1020.0
06 23.10 СЗ 2 8000 м дымка 1/0
[Ac trans]
+20.6 +17.8 84 +25 +29 комфорт 1020.6 1021.0 +18.2
09 23.10 СЗ 3 10 км 3/3 900 м
[Cu med, cong]
+26.1 +19.1 65 +31 +37 очень
душно
1020.5 1021.0
12 23.10 СЗ 2 10 км 1/0
[Ac trans]
+28.2 +19.6 60 +34 +39 очень
душно
1018.1 1018.0

 

Местоположение метеостанции Ramadi (Ирак): широта 33.45 долгота 43.32 высота над уровнем моря 48 м.

В архиве по умолчанию представлена погода в Ramadi за последнюю неделю. Архивные данные за месяц целиком и за предыдущие месяцы, начиная с января 2011 года, Вы можете получить, выбрав интересующий диапазон дат из раскрывающегося списка и нажав кнопку "Ввод!".


*Определитесь, кто Вы:
робот инопланетянин человек

Внимание! Время в таблицах - всемирное. Для получения местного времени необходимо прибавить поправку, которая в Ramadi равна 3 ч.

Смотрите также архив погоды в соседних городах и на ближайших метеорологических станциях:

Погода в Heet (Ирак) (45 км)
Погода в Baghdad (Ирак) (88 км)
Погода в Haditha (Ирак) (112 км)
Погода в Karbalaa (Ирак) (113 км)
Погода в Al-Khalis (Ирак) (120 км)
Погода в Tikrit (Ирак) (129 км)
Погода в Ayn Al-Tamar (Ирак) (130 км)
Погода в Hella (Ирак) (153 км)
Погода в Baiji (Ирак) (165 км)
Погода в Ana (Ирак) (170 км)

Пояснения к столбцам:

Ветер - указаны скорость ветра в м/с - средняя за 10 мин, порывы в срок и между сроками (в фигурных скобках) и направление, откуда дует ветер: С - северный, СВ - северо-восточный, В - восточный, ЮВ - юго-восточный, Ю - южный, ЮЗ - юго-западный, З - западный, СЗ - северо-западный.
Видимость - горизонтальная дальность видимости в метрах или километрах. При видимости от 1 до 10 км при отсутствии осадков обычно наблюдается дымка, при ухудшении видимости до 1 км и менее - туман. В сухую погоду видимость может ухудшаться дымом, пылью или мглою.
Явления - указаны атмосферные явления, наблюдавшиеся в срок или в последний час перед сроком; фигурными скобками обозначены явления, наблюдавшиеся между сроками (за 1-3 часа до срока); квадратными скобками обозначены град или гололедные отложения с указанием их диаметра в мм.
Облачность - указаны через наклонную черту общая и нижняя облачность в баллах и высота нижней границы облаков в метрах; квадратными скобками обозначены формы облаков: Ci - перистые, Cs - перисто-слоистые, Cc - перисто-кучевые, Ac - высококучевые, As - высокослоистые, Sc - слоисто-кучевые, Ns - слоисто-дождевые, Cu - кучевые, Cb - кучево-дождевые. Подробнее классификацию облаков см. в Атласе облаков (PDF).
T - Температура воздуха - температура, измеренная на высоте 2 м над землей.
Td - Температура точки росы - температура, при понижении до которой содержащийся в воздухе водяной пар достигнет насыщения.
f - Относительная влажность воздуха - влажноcть воздуха, измеренная на высоте 2 м над землей.
Te - Эффективная температура - температура, которую ощущает одетый по сезону человек в тени. Характеристика душности погоды. При расчете учитывается влияние влажности воздуха и скорости ветра на теплоощущения человека.
Tes - Эффективная температура на солнце - температура, которую ощущает человек, с поправкой на солнечный нагрев. Характеристика знойности погоды. Зависит от высоты солнца над горизонтом, облачности и скорости ветра. Ночью, в пасмурную погоду, а также при ветре 12 м/с и более поправка равна нулю.
P - Атмосферное давление - приведенное к уровню моря атмосферное давление.
Po - Атмосферное давление - измеренное на уровне метеостанции атмосферное давление.
Tmin - Минимальная температура - минимум температуры воздуха на высоте 2 м над землей.
Tmax - Максимальная температура - максимум температуры воздуха на высоте 2 м над землей.
R - Количество осадков - Количество выпавших осадков за период времени, мм. При наведении курсора мыши на число - период времени, за который выпало указанное количество осадков.
R24 - Количество осадков - Количество выпавших осадков за 24 часа, мм.
S - Снежный покров - Высота снежного покрова, см. При наведении курсора мыши на число - состояние снежного покрова и степень покрытия местности в баллах.